Domov               UVHVVR             MKGP            O straneh              
ZDRAVSTVENO VARSTVO RASTLIN
  MREŽA AGROMET. POSTAJ
 ► PROGNOSTIČNA OBVESTILA
AGROMETEOROLOŠKI PODATKI -
ARSO
OBVLADOVANJE TVEGANJ ZARADI
NEUGODNIH VREMENSKIH RAZMER
  ► NARAVNE NESREČE
  ► SUŠA/MOČA
  ► NAMAKANJE
  ► ŽLED (gozdarstvo)
KARTOGRAFSKI PRIKAZI
SPLETNE POVEZAVE
PROJEKTI IN PUBLIKACIJE

AGROMETEOROLOŠKA MREŽA: VREMENSKE POSTAJE IN FENOLOŠKA OPAZOVANJA

Pregled podatkov za lokacijo Višnjevik, meteorološka postaja 857246

Pregled senzorjev na lokaciji

ID Ime Zadnja
vrednost
Datum
zadnje
spremembe
Tip
senzorja
3902 Temperatura 2 m ( °C) 14,64 °C 18.10.2017 18:15 50YA
3903 Relativna vlaga 2 m (% RH) 89,55 % RH 18.10.2017 18:15 50YA
3904 Omočenost lista (U) 0 U 18.10.2017 18:15 A730WET
3906 Padavine 0.2 mm (mm) 0 mm 18.10.2017 18:15 Rain-O-Matic

Pregled podatkov zadnjih 24 ur

Zap.
št.
Datum in čas Višnjevik
Omočenost
lista
Padavine
0.2
mm
Relativna
vlaga
2
m
Temperatura
2
m
0 18.10.2017 17:30 0 0 89,55 14,64
1 18.10.2017 17:00 0 0 83,64 15,98
2 18.10.2017 16:30 0 0 75,94 17,71
3 18.10.2017 16:00 0 0 71,15 18,78
4 18.10.2017 15:30 0 0 68,07 19,43
5 18.10.2017 15:00 0 0 66,09 19,82
6 18.10.2017 14:30 0 0 67,9 19,5
7 18.10.2017 14:00 0 0 66,94 19,74
8 18.10.2017 13:30 0 0 69,51 19,49
9 18.10.2017 13:00 0 0 70,75 18,97
10 18.10.2017 12:30 0 0 69,82 19,1
11 18.10.2017 12:00 0 0 66,69 19,5
12 18.10.2017 11:30 0 0 67,88 19,35
13 18.10.2017 11:00 0 0 73,53 18,06
14 18.10.2017 10:30 0 0 72,98 17,33
15 18.10.2017 10:00 0 0 74,7 16,5
16 18.10.2017 09:30 0 0 78,87 15,7
17 18.10.2017 09:00 0 0 78,82 15,67
18 18.10.2017 08:30 0 0 86,24 13,41
19 18.10.2017 08:00 0 0 93,85 11,65
20 18.10.2017 07:30 1 0 96,28 10,81
21 18.10.2017 07:00 1 0 94,73 10,49
22 18.10.2017 06:30 0 0 90,7 11,3
23 18.10.2017 06:00 0 0 90,38 11,61
24 18.10.2017 05:30 0 0 88,7 12,07
25 18.10.2017 05:00 0 0 88,43 12,2
26 18.10.2017 04:30 0 0 87,44 12,29
27 18.10.2017 04:00 0 0 87,98 12,2
28 18.10.2017 03:30 0 0 86,78 12,42
29 18.10.2017 03:00 0 0 85,8 12,72
30 18.10.2017 02:30 0 0 83,16 13,29
31 18.10.2017 02:00 0 0 82,35 13,49
32 18.10.2017 01:30 0 0 83,87 13,48
33 18.10.2017 01:00 0 0 82,52 13,84
34 18.10.2017 00:30 0 0 83,51 13,76
35 18.10.2017 00:00 0 0 84,74 13,79
36 17.10.2017 23:30 0 0 87,12 13,91
37 17.10.2017 23:00 0 0 83,76 14,25
38 17.10.2017 22:30 0 0 82,8 14,58
39 17.10.2017 22:00 1 0 87,14 14,14
40 17.10.2017 21:30 1 0 88,45 14,68
41 17.10.2017 21:00 1 0 93,92 14,04
42 17.10.2017 20:30 1 0 95,92 13,6
43 17.10.2017 20:00 1 0 94,76 13,88
44 17.10.2017 19:30 1 0 95,23 14,04
45 17.10.2017 19:00 1 0 95,01 14,44
© 2011 Ministrstvo za kmetijstvo, gozdarstvo in prehrano. Vse pravice pridržane.